Temperature
18 18 18 18 18 18 18 18 18 18 18 17 17 18 18 18 18 18 18 18 18 18 18 18 18 18 18 18 18 18 18 18 17 17 17 17 17 17 17 17 17 17 17
18 18 18 18 18 18 18 18 18 18 18 18 18 18 18 18 18 18 18 18 18 18 18 18 18 18 18 18 18 18 18 18 18 18 17 17 17 17 17 17 17 17 17
18 18 18 18 18 18 18 18 18 18 18 18 18 18 18 18 18 18 18 18 18 18 18 19 19 18 19 19 18 18 18 18 18 18 18 18 17 17 17 17 17 17 17
17 17 17 17 17 17 17 17 18 18 17 17 17 18 18 18 18 18 18 18 18 18 18 18 19 19 19 19 19 19 19 19 19 18 18 18 18 18 17 17 17 17 17
17 17 17 17 17 17 17 17 17 17 17 17 17 17 17 18 18 18 18 18 17 18 18 18 18 19 19 19 19 19 19 19 19 19 19 18 18 18 18 18 17 17 17
16 16 16 16 16 16 16 16 16 16 16 17 17 17 17 18 18 18 18 18 18 18 18 18 18 18 19 19 19 19 19 19 19 19 19 19 19 18 18 18 18 17 17
16 16 16 15 15 16 15 15 16 16 16 17 17 17 18 18 18 17 17 18 18 18 18 18 18 18 18 18 19 20 20 19 19 19 19 19 19 18 18 18 18 17 17
16 15 15 15 15 15 15 15 15 15 16 16 16 17 18 19 18 18 18 18 18 18 18 18 18 18 18 18 18 19 19 19 19 19 19 19 18 18 18 18 18 17 17
15 15 15 15 15 15 15 15 15 14 15 15 16 17 18 19 20 19 18 18 18 18 18 18 18 17 17 17 18 18 18 18 19 19 18 18 18 18 18 18 18 17 17
15 15 15 14 15 14 14 14 14 14 13 14 15 16 16 17 18 19 19 18 17 17 17 18 17 17 17 17 17 17 17 18 18 18 17 17 17 17 17 17 17 17 17
15 14 14 14 14 14 14 14 14 14 14 14 14 15 15 15 15 16 18 19 18 17 17 16 16 17 16 16 16 16 17 17 16 16 17 17 17 17 17 17 17 17 17
14 14 14 14 14 13 13 13 14 14 14 14 14 14 15 15 16 16 17 17 18 17 16 16 16 16 16 16 16 16 16 16 16 16 16 16 16 16 16 17 17 17 17
15 14 14 14 14 14 14 13 13 14 14 14 14 14 14 14 15 15 16 17 17 16 15 15 15 15 15 15 15 15 15 15 15 15 15 15 16 16 16 16 16 16 16
15 15 14 14 14 13 13 13 13 13 13 14 14 14 14 14 14 15 15 15 15 15 15 15 15 15 15 15 14 14 14 14 15 15 15 15 15 15 15 15 16 16 16
14 14 14 14 13 13 13 13 13 13 14 14 14 14 14 14 14 14 14 15 15 15 15 14 14 14 14 14 14 14 14 14 14 15 15 15 15 15 15 15 15 15 15
14 14 14 14 13 13 13 13 13 13 13 14 13 13 14 14 14 14 14 14 15 15 14 14 13 13 13 13 13 13 13 14 14 14 14 14 14 14 14 14 14 14 14
14 14 14 13 13 13 13 13 13 13 13 13 13 13 13 13 14 14 14 14 14 14 14 13 13 13 13 12 13 13 13 13 14 14 13 13 13 13 13 13 13 13 14
14 13 13 13 12 12 12 13 13 12 12 12 13 13 13 13 13 14 14 14 14 14 13 13 12 12 12 12 12 12 12 12 12 12 12 12 12 12 12 13 13 13 13
14 13 13 13 12 12 12 12 12 12 12 12 12 12 12 13 13 13 13 13 13 13 13 13 12 11 11 11 12 12 11 11 11 12 12 12 12 12 12 12 12 13 13
13 13 13 12 12 12 12 12 12 12 12 12 12 12 12 12 12 12 13 13 13 12 12 12 11 11 11 11 12 12 12 11 11 11 11 11 11 11 11 12 12 12 12
12 12 12 12 12 12 12 12 12 12 12 12 12 12 12 12 12 12 12 12 12 11 11 11 11 11 12 12 12 13 12 12 11 11 11 11 11 10 10 11 11 11 11
12 12 12 12 12 12 12 12 12 11 11 11 12 12 12 12 12 12 12 11 11 11 11 12 12 12 12 12 13 13 13 13 12 11 12 11 11 10 10 10 10 10 10
11 11 11 12 12 12 12 12 12 11 11 11 11 11 12 12 12 12 11 11 11 11 11 12 12 12 12 12 12 13 12 13 12 11 12 11 11 10 9 9 9 9 9
10 10 11 11 11 11 12 12 12 11 11 11 11 11 11 11 11 11 11 11 11 11 11 12 12 11 11 11 11 11 11 11 11 11 11 12 11 10 9 9 9 9 9
9 10 10 10 11 11 11 12 12 11 11 11 11 11 11 11 11 11 11 11 11 11 11 11 12 11 11 11 11 11 11 12 12 11 11 11 11 10 9 9 8 8 8
8 9 9 10 10 10 11 11 11 11 11 11 11 11 11 11 11 11 11 11 11 11 11 11 11 10 10 10 10 11 11 12 12 11 10 11 11 11 10 9 9 8 8
Wind_Speed
9 8 8 9 11 11 10 9 10 11 11 12 13 13 13 13 13 14 13 12 15 17 19 19 18 18 18 18 19 20 20 22 25 26 27 27 26 25 25 25 24 23 22
9 9 10 10 11 12 11 9 11 11 11 11 13 13 13 14 12 13 15 15 17 20 21 20 19 18 17 17 18 19 19 19 22 25 27 28 28 28 27 26 26 25 25
11 9 10 11 11 12 12 11 13 11 11 11 13 13 12 12 12 13 15 15 16 18 23 22 20 19 18 18 17 17 17 18 20 23 25 27 28 29 29 28 27 27 27
10 8 9 9 9 10 9 10 11 11 11 11 11 10 10 11 13 13 15 15 16 17 18 23 22 20 18 18 17 17 18 19 20 23 24 25 26 26 28 28 28 28 28
7 6 6 7 8 8 9 10 10 10 11 12 11 11 12 13 14 15 16 16 17 17 18 16 22 21 20 19 19 19 18 19 20 22 24 25 26 26 26 27 28 28 28
5 6 7 7 9 9 9 9 10 11 11 12 13 13 13 13 13 15 16 16 16 18 19 19 16 18 23 22 20 20 19 19 20 22 23 25 26 26 26 26 27 28 28
4 5 8 8 9 10 11 13 13 14 13 12 12 14 14 16 16 14 15 15 17 17 17 16 16 15 13 21 23 21 21 21 21 21 22 24 25 25 26 26 26 27 27
5 6 7 9 10 10 12 13 13 13 14 12 12 13 14 14 14 16 15 15 16 15 16 16 15 13 14 13 13 20 21 21 21 21 21 23 24 24 25 26 26 27 27
5 6 8 10 10 11 11 11 12 14 14 14 14 13 12 14 12 12 15 14 14 13 14 13 13 12 13 12 12 14 17 17 18 19 20 22 23 23 23 24 25 26 27
6 7 8 9 10 10 10 11 11 12 13 13 13 14 16 16 14 12 10 12 13 13 13 11 11 11 11 11 8 2 5 6 8 8 9 11 14 17 19 21 23 25 27
6 7 8 9 10 10 11 11 12 13 12 13 13 13 14 14 16 15 14 11 11 12 11 11 9 8 8 8 5 4 8 6 5 4 2 2 5 8 11 15 19 23 25
6 6 8 9 10 10 11 12 12 13 12 13 13 13 13 12 13 14 15 14 12 9 8 7 7 6 4 3 5 12 11 9 9 8 7 5 3 1 2 5 9 13 17
7 6 8 9 10 11 12 12 12 13 13 13 13 12 13 14 13 13 13 13 11 8 6 5 4 3 4 6 9 12 10 9 8 8 9 9 10 9 8 8 6 5 2
7 7 9 10 11 12 12 12 12 13 11 12 13 13 12 13 13 13 13 12 10 9 8 5 3 4 5 7 10 9 9 8 8 9 10 12 12 12 12 12 13 13 13
7 8 9 11 11 12 12 13 12 13 12 12 13 13 12 12 12 12 12 12 11 9 8 6 3 5 6 8 7 8 8 9 8 10 11 13 14 14 13 13 14 14 14
9 9 10 11 11 11 12 12 13 12 12 12 10 12 12 11 11 11 11 11 11 9 5 3 4 6 7 7 9 10 10 12 11 12 13 14 15 15 15 15 15 16 15
10 10 10 11 11 11 11 11 12 12 11 10 9 9 10 10 9 9 9 9 9 8 6 5 6 7 8 8 7 7 8 10 12 15 16 17 16 16 16 16 16 16 15
13 12 11 11 11 10 10 10 10 10 9 8 8 7 8 7 7 7 7 8 7 8 10 12 8 6 7 8 8 8 8 11 12 16 17 17 17 17 16 16 16 16 16
14 14 13 12 11 9 9 9 8 7 7 6 5 5 5 4 2 1 3 4 5 8 11 13 10 7 7 9 9 10 11 10 12 15 16 16 16 15 15 14 13 13 13
15 16 15 13 11 10 9 7 6 5 4 4 4 4 4 4 4 5 6 8 9 11 11 11 10 9 8 10 10 11 10 9 10 11 11 13 15 15 15 14 14 13 13
16 16 16 14 12 10 8 7 5 3 2 1 3 3 5 7 9 8 8 9 9 9 8 8 9 9 9 10 10 10 11 10 9 9 10 9 10 10 12 15 16 15 16
14 15 16 15 14 11 7 4 7 4 2 1 3 4 6 8 12 13 13 11 8 7 6 6 7 10 10 9 8 9 10 9 8 6 7 7 7 8 9 12 13 14 16
13 14 15 16 15 12 12 10 8 5 4 3 3 3 6 9 10 11 13 12 10 7 2 4 10 10 9 8 7 7 5 6 7 6 6 7 7 8 9 12 12 13 14
12 12 13 14 15 13 15 13 10 8 6 5 5 6 7 9 9 11 12 11 9 8 6 7 9 9 9 7 5 7 8 8 7 4 3 5 6 7 8 10 11 11 12
11 11 11 12 14 13 16 15 13 10 8 7 6 6 7 9 8 9 11 11 11 9 13 16 15 13 12 9 4 5 7 8 8 6 3 4 5 6 7 7 10 11 11
13 11 10 9 11 12 15 17 16 11 10 9 7 6 5 8 8 5 11 12 11 10 11 12 11 10 9 6 2 1 4 6 8 7 3 2 3 4 6 5 5 5 6
Wind_Direction
263 270 276 276 277 277 270 263 269 271 269 266 266 265 264 264 267 271 273 255 233 234 243 247 247 247 245 239 237 238 240 236 229 223 222 223 225 226 227 229 231 231 233
268 273 274 274 273 273 275 274 269 268 267 266 266 267 267 264 263 268 267 266 245 232 237 243 246 248 248 244 241 241 241 237 229 223 222 223 225 225 226 228 230 231 231
268 270 271 270 270 270 269 267 267 263 258 256 256 258 259 261 263 265 266 267 266 242 228 232 238 241 245 247 247 247 242 234 229 224 223 223 225 225 224 224 226 229 230
280 277 272 273 279 279 273 270 267 268 262 258 256 254 250 249 251 253 255 253 257 263 245 223 224 231 238 246 250 249 244 236 230 227 225 225 226 226 225 223 223 226 229
305 296 289 290 288 281 277 276 277 275 273 270 264 254 249 246 243 242 244 246 248 249 257 239 213 220 229 240 245 246 243 239 233 229 226 226 226 226 225 224 222 224 226
324 317 300 302 299 290 287 286 288 279 274 274 272 268 259 250 243 239 240 242 243 244 245 250 238 224 219 227 235 241 244 243 239 234 230 226 225 224 224 223 222 222 223
326 312 306 308 294 290 291 289 285 280 272 269 267 266 259 251 245 241 239 242 243 242 244 244 247 249 234 216 221 231 239 243 245 242 237 231 226 222 221 221 220 221 221
313 306 308 298 295 293 284 280 278 277 275 267 262 268 266 256 242 238 237 236 242 243 242 239 239 241 249 251 229 218 231 241 247 248 246 239 231 225 222 221 219 219 219
302 304 298 296 297 291 287 286 284 276 274 270 257 255 262 261 259 243 229 233 237 241 244 244 239 238 238 246 254 223 219 232 244 248 246 240 233 229 225 222 220 218 218
296 299 296 294 289 285 282 279 276 274 271 270 264 251 251 268 272 263 236 227 229 234 240 237 236 233 237 244 238 238 181 214 232 237 235 230 227 227 227 227 226 223 220
287 295 300 299 294 290 290 288 284 276 270 266 268 264 254 250 251 256 256 245 224 224 227 226 235 240 239 243 245 136 115 118 112 102 107 185 214 221 225 229 231 229 225
294 299 305 302 297 297 298 294 289 281 275 271 267 264 258 250 244 242 246 247 244 233 221 223 226 227 226 206 132 111 107 102 96 90 83 80 84 112 207 223 230 232 233
305 316 312 305 302 301 298 295 290 283 279 274 268 264 259 254 254 255 251 250 249 236 212 210 207 186 162 129 118 112 103 100 97 94 88 81 75 69 65 66 67 64 44
303 314 304 299 299 300 300 298 291 284 278 274 269 265 262 257 251 247 245 245 242 229 211 191 150 143 128 122 113 111 98 87 92 96 95 90 84 77 71 67 64 63 59
286 291 296 296 297 300 301 299 291 288 282 275 271 265 260 257 251 245 240 235 232 224 207 176 141 121 121 113 115 99 91 80 88 97 98 95 90 82 75 71 68 66 64
274 278 283 290 295 298 299 297 294 290 286 281 277 273 266 260 253 245 236 230 226 224 204 151 132 127 119 115 108 101 93 84 80 96 102 99 92 87 82 77 73 70 67
267 266 271 281 288 293 297 297 296 297 295 293 288 282 277 269 257 247 238 229 221 212 177 122 114 121 123 124 122 122 113 94 85 92 101 100 96 91 87 82 78 74 71
262 259 261 269 278 284 291 295 300 304 304 304 304 303 297 284 262 248 233 222 209 192 159 137 131 135 137 134 133 130 113 100 97 93 97 98 95 91 86 82 78 75 72
266 259 253 256 263 271 280 288 295 303 309 319 330 331 328 317 287 223 179 159 147 140 136 135 139 142 145 144 139 122 111 113 108 110 106 103 100 97 92 87 83 79 75
273 258 249 247 249 253 263 272 281 295 312 332 353 2 13 27 60 89 96 103 111 116 122 130 136 144 149 158 147 135 127 122 120 119 110 115 117 107 94 85 80 77 73
279 263 248 239 236 237 242 247 255 259 284 348 29 37 53 66 72 85 97 100 104 109 118 132 143 150 157 165 154 139 126 124 121 128 134 137 135 117 101 90 78 73 71
288 272 253 237 228 226 171 201 257 224 205 130 83 79 94 94 93 93 94 91 96 120 139 152 155 148 148 148 137 141 145 141 129 127 127 118 112 99 88 84 78 76 71
298 283 263 244 230 210 170 195 230 235 193 149 117 109 104 109 117 117 108 100 85 66 96 134 126 126 126 125 140 144 131 128 114 135 147 129 124 112 103 93 89 79 69
296 294 279 258 238 209 181 193 202 220 193 161 135 123 121 125 125 132 132 121 101 63 58 97 106 106 105 100 100 108 117 119 122 125 168 142 141 133 123 111 106 93 81
286 289 287 277 251 218 185 188 195 204 190 176 153 138 137 131 126 136 134 127 114 93 70 74 75 79 66 51 35 158 166 172 149 136 148 143 145 150 138 131 133 134 120
276 279 281 281 270 239 193 185 195 203 185 175 158 142 114 129 142 163 153 145 134 126 120 110 102 108 103 97 32 296 205 185 152 137 116 157 145 170 147 127 118 139 143
Height
1536 1536 1536 1536 1536 1536 1535 1534 1534 1534 1534 1534 1534 1534 1534 1534 1534 1535 1536 1536 1536 1537 1537 1537 1538 1538 1539 1540 1541 1542 1544 1545 1546 1548 1549 1551 1552 1554 1556 1557 1559 1561 1563
1531 1531 1531 1530 1530 1529 1529 1529 1528 1528 1528 1528 1528 1528 1528 1528 1528 1529 1530 1531 1531 1531 1532 1533 1533 1534 1534 1535 1537 1538 1539 1540 1541 1543 1545 1546 1548 1549 1551 1552 1554 1556 1558
1527 1526 1525 1524 1524 1524 1524 1524 1523 1523 1522 1522 1521 1521 1521 1522 1522 1523 1524 1525 1526 1527 1527 1527 1528 1529 1529 1530 1532 1533 1534 1535 1537 1538 1540 1541 1543 1544 1546 1547 1549 1551 1553
1523 1522 1521 1520 1520 1519 1518 1518 1518 1517 1517 1516 1515 1514 1514 1514 1514 1515 1517 1518 1519 1521 1522 1521 1522 1523 1524 1525 1526 1528 1529 1530 1531 1533 1534 1536 1537 1539 1540 1542 1543 1545 1547
1519 1518 1517 1516 1515 1515 1514 1513 1513 1512 1511 1511 1510 1508 1508 1507 1507 1508 1509 1511 1513 1514 1515 1516 1515 1516 1517 1519 1520 1521 1523 1524 1525 1527 1528 1529 1531 1533 1534 1536 1538 1539 1541
1517 1515 1515 1513 1511 1511 1510 1509 1507 1506 1505 1505 1504 1503 1502 1501 1501 1501 1502 1504 1506 1507 1508 1509 1510 1510 1510 1511 1513 1514 1516 1517 1518 1519 1521 1522 1523 1525 1527 1529 1531 1533 1535
1514 1511 1511 1509 1507 1506 1505 1503 1502 1502 1501 1500 1499 1497 1496 1495 1494 1494 1495 1497 1499 1500 1501 1502 1503 1504 1505 1504 1505 1506 1508 1509 1510 1511 1512 1514 1515 1517 1519 1521 1524 1526 1528
1510 1509 1506 1504 1503 1501 1498 1497 1496 1494 1494 1495 1494 1492 1490 1489 1486 1487 1488 1489 1491 1493 1494 1495 1496 1496 1497 1499 1498 1498 1499 1500 1500 1501 1503 1505 1507 1509 1511 1513 1515 1518 1521
1506 1504 1501 1499 1497 1495 1493 1490 1489 1487 1486 1487 1487 1487 1484 1480 1480 1480 1480 1482 1483 1485 1487 1488 1489 1490 1490 1491 1491 1491 1491 1491 1492 1492 1494 1496 1498 1501 1503 1505 1508 1510 1513
1502 1500 1497 1494 1492 1489 1487 1485 1483 1481 1479 1478 1479 1478 1478 1477 1477 1475 1475 1475 1476 1478 1480 1481 1483 1483 1484 1484 1484 1484 1484 1484 1485 1486 1487 1489 1491 1493 1495 1498 1500 1503 1506
1498 1496 1493 1491 1488 1486 1483 1480 1478 1476 1474 1472 1471 1471 1471 1471 1471 1471 1470 1470 1471 1472 1473 1475 1476 1477 1478 1478 1478 1477 1478 1478 1479 1480 1481 1483 1485 1487 1489 1491 1493 1496 1499
1496 1494 1490 1487 1484 1482 1479 1476 1473 1471 1468 1466 1465 1465 1464 1464 1464 1465 1464 1465 1465 1467 1468 1469 1470 1471 1472 1472 1472 1472 1473 1474 1475 1475 1476 1477 1479 1481 1483 1485 1487 1489 1491
1493 1490 1487 1483 1481 1478 1475 1472 1469 1466 1463 1461 1459 1458 1457 1457 1458 1458 1458 1458 1459 1461 1462 1463 1464 1465 1466 1467 1467 1469 1469 1470 1471 1472 1473 1473 1475 1476 1478 1480 1481 1483 1485
1489 1486 1483 1480 1477 1474 1471 1468 1465 1462 1459 1455 1453 1451 1450 1450 1451 1451 1452 1453 1454 1456 1457 1459 1460 1461 1463 1464 1465 1467 1467 1468 1469 1470 1470 1471 1472 1474 1475 1476 1477 1479 1480
1485 1482 1479 1477 1473 1470 1467 1464 1461 1457 1454 1450 1448 1446 1444 1443 1443 1444 1445 1447 1449 1450 1452 1454 1456 1458 1460 1462 1464 1465 1466 1467 1468 1469 1469 1470 1471 1473 1474 1474 1475 1476 1477
1481 1479 1476 1473 1470 1467 1463 1460 1456 1453 1449 1445 1443 1440 1439 1438 1437 1438 1439 1440 1442 1445 1448 1450 1452 1455 1458 1460 1462 1464 1465 1466 1467 1468 1469 1470 1471 1472 1473 1474 1474 1474 1475
1476 1474 1472 1469 1467 1463 1460 1456 1452 1448 1444 1441 1438 1436 1434 1433 1432 1432 1433 1434 1437 1440 1444 1446 1450 1454 1457 1459 1462 1464 1465 1465 1466 1467 1468 1470 1471 1472 1473 1474 1474 1475 1475
1470 1469 1467 1465 1463 1460 1456 1453 1449 1445 1441 1438 1435 1433 1431 1429 1427 1428 1429 1430 1433 1436 1440 1443 1448 1452 1456 1459 1462 1464 1466 1467 1467 1468 1469 1471 1472 1473 1474 1474 1475 1475 1475
1463 1463 1462 1460 1458 1456 1453 1450 1446 1442 1439 1436 1433 1431 1429 1427 1425 1425 1426 1428 1430 1433 1437 1442 1447 1452 1456 1459 1463 1466 1467 1469 1470 1470 1471 1472 1474 1474 1475 1475 1475 1475 1475
1456 1455 1455 1454 1453 1451 1450 1447 1444 1441 1438 1435 1433 1431 1429 1426 1425 1425 1425 1427 1430 1433 1437 1442 1447 1452 1456 1460 1464 1466 1469 1471 1473 1474 1474 1475 1475 1476 1476 1476 1476 1475 1475
1448 1447 1447 1447 1447 1446 1446 1444 1442 1440 1437 1435 1433 1432 1431 1429 1427 1427 1428 1429 1432 1435 1440 1445 1449 1453 1457 1461 1465 1468 1470 1472 1474 1476 1477 1478 1478 1479 1478 1477 1477 1476 1476
1441 1440 1439 1440 1440 1441 1440 1440 1439 1439 1437 1436 1435 1434 1433 1432 1431 1431 1432 1434 1437 1441 1445 1448 1452 1455 1459 1462 1465 1468 1470 1473 1475 1477 1478 1479 1480 1480 1479 1478 1478 1478 1477
1434 1432 1432 1432 1433 1434 1435 1436 1436 1436 1437 1436 1435 1435 1435 1434 1435 1436 1437 1440 1443 1446 1450 1452 1454 1457 1460 1463 1466 1468 1470 1472 1474 1476 1478 1479 1480 1480 1480 1479 1479 1479 1478
1429 1426 1425 1425 1426 1428 1429 1431 1433 1434 1436 1436 1436 1436 1436 1437 1438 1440 1442 1444 1447 1450 1453 1455 1457 1460 1462 1463 1466 1468 1469 1471 1473 1476 1478 1479 1480 1481 1481 1480 1480 1479 1479
1423 1421 1419 1418 1419 1421 1424 1427 1429 1432 1434 1435 1436 1437 1438 1439 1441 1443 1445 1447 1449 1452 1454 1457 1459 1461 1462 1464 1467 1469 1471 1472 1474 1476 1477 1479 1480 1481 1481 1481 1480 1480 1479
1418 1415 1413 1411 1411 1414 1418 1422 1425 1429 1432 1434 1435 1436 1438 1440 1442 1444 1447 1448 1450 1453 1455 1458 1460 1462 1464 1465 1466 1468 1471 1472 1473 1475 1476 1478 1479 1480 1481 1482 1482 1481 1480